Regional Weather Roundup
Issued by NWS Newport/Morehead, NC

Current Version | Previous Version | Graphics & Text | Print | Product List | Glossary Off
Versions: 1 2 3 4 5 6 7 8 9 10 11 12 13 14 15 16 17 18 19 20 21 22 23 24 25 26 27 28 29 30 31 32 33 34 35 36 37 38 39 40 41 42 43 44 45 46 47 48 49 50

000
ASUS42 KMHX 230722
RWRMHX
WEATHER ROUNDUP FOR EASTERN NORTH CAROLINA
NATIONAL WEATHER SERVICE NEWPORT/MOREHEAD CITY NC
300 AM EDT WED JUL 23 2014

NOTE: "FAIR" INDICATES FEW OR NO CLOUDS BELOW 12,000 FEET
WITH NO SIGNIFICANT WEATHER AND/OR OBSTRUCTIONS TO VISIBILITY

NCZ015>017-031-032-045>047-102-103-230800-
NORTH COAST

CITY           SKY/WX    TMP DP  RH WIND       PRES   REMARKS
EDENTON        CLOUDY    76  75  95 SW5       30.05F
ELIZABETH CITY PTCLDY    73  72  96 CALM      30.05F
KITTY HAWK     RAIN      75  74  96 SW6       30.04F
MANTEO         NOT AVBL

$$

NCZ045>047-081-094-103-104-230800-
CENTRAL COAST

CITY           SKY/WX    TMP DP  RH WIND       PRES   REMARKS
FRISCO         MOCLDY    78  75  90 W6        30.06F
SWANQUARTER      N/A     77 N/A N/A SW9       30.03S

$$

NCZ095-097-098-100-101-230800-
SOUTHERN COAST

CITY           SKY/WX    TMP DP  RH WIND       PRES   REMARKS
BEAUFORT       PTCLDY    79  74  84 SW9       30.07F
CEDAR ISLAND     N/A     75 N/A N/A SW1       30.09F
JACKSONVILLE   PTCLDY    74  73  97 CALM      30.07F
NEWPORT        NOT AVBL
PINEY ISLAND   MOSUNNY   76  75  97 SW5       30.07F
WILMINGTON     CLEAR     74  73  97 CALM      30.07F


$$

NCZ011>013-027>030-043-044-078>080-089-090>093-098-230800-
COASTAL PLAIN

CITY           SKY/WX    TMP DP  RH WIND       PRES   REMARKS
AHOSKIE        CLOUDY    71  69  96 CALM      30.06F VSB 1/2
CLINTON        CLOUDY    75  75 100 SW3       30.07S
ELIZABETHTOWN  MOCLDY    74  74 100 CALM      30.07F
GOLDSBORO      CLOUDY    75  75 100 SW1       30.04F
GREENVILLE     CLOUDY    73  73 100 CALM      30.08S
HAVELOCK       PTCLDY    74  72  93 SW6       30.08F
KENANSVILLE    CLOUDY    74  73  94 CALM      30.08S
KINSTON        MOCLDY    75  74  98 S3        30.06F
NEW BERN       PTCLDY    76  73  91 SW3       30.08F
RICHLANDS      PTCLDY    73  70  88 SW3       30.07F
ROANOKE RAPIDS NOT AVBL
ROCKY MOUNT    CLOUDY    74  72  93 CALM      30.06F
WASHINGTON     MOCLDY    75  74  95 SW3       30.06F
WHITEVILLE     PTCLDY    74  73  95 CALM      30.06F

$$

AMZ130-135-150-152-154-156-158-170-250-252-270-ANZ085-086-088-633-658-670-230800-
MARINE OBSERVATIONS

STATION/POSITION TIME  TEMP    WIND        PRES    WAVE   SWELL
                       AIR SEA DIR/SP/G            HT/PER HT/PER
                 (UTC) (F)     (DEG/KT/KT) (MB)    (FT/S) (FT/S)
CHESAPEAKE LIGHT NOT AVBL
BUOY 44014       0700   78 78  210/  8/  8 1017.4    3/ 5   2/ 5
DUCK             0700   76 73  220/ 11/ 15 1016.7
2E DUCK          0700                        N/A     2/ 8
OREGON INLET     0700   77 80  250/  6/  8 1017.8
BUOY 44095       0700      76                N/A     3/ 5
20E OREGON INLET NOT AVBL
HATTERAS CG      0700   77 82  230/  8/ 11 1018.3
DIAMOND BUOY     0700          VRB 16/ 19  1017.6    4/ 7   2/ 7
CAPE LOOKOUT     0700   79     230/  8/ 12 1018.2
BEAUFORT LAB     0700   79 80  240/  4/  8 1017.9
30 SE NEW RIVER  0700   80 80  240/ 12/ 14 1018.6    4/ 5   2/ 6
5 SE WRIGHTSVILL 0700   76 81  230/ 10/ 12   N/A
BUOY 41002       0557   82 82  200/ 14/ 16 1020.4    4/ 7   2/ 7
BUOY 41004       0700   81 82  170/  8/ 12 1017.3    3/ 6   3/ 6

$$


USA.gov is the U.S. government's official web portal to all federal, state and local government web resources and services.